Find Starlink 32719

NORAD ID: 62448 Int'l Des: 2024-251 Owner: SPXS Country: US Constellation: starlink operational
LEOCIRCULAR

当前视图

正在加载3D地球...

About Starlink 32719

Starlink 32719 (NORAD 62448) is a starlink constellation satellite (v2 mini) launched Dec 29, 2024 by SPXS of US. It operates in LEO, CIRCULAR orbit with a mass of 730.00 kg.

即将过境

Passes for default location (London). Set your location on the main map for personalized predictions.

高度历史

Loading altitude history...

两行轨道根数

1 62448U 24251S 26263.39325742 .00010602 00000-0 32447-3 0 9994
2 62448 53.1571 148.2810 0001870 79.2711 280.8502 15.34401426 97624
Epoch: Sep 20, 2026 • Age: 13 hours

当前状态

高度 466.2 km
远地点 / 近地点 N/A
速度 7.64 km/s
星下点 44.38°N, 57.82°W
发射日期 Dec 29, 2024
运行时间 1.7 years
类型 internet

技术详情

分类 Payload
质量 730.00 kg
干质量 700.00 kg
长度 0.30 m
跨度 29.00 m
形状 ? Box + pan
制造商 SPXS
平台类型 Starlink V2M
阶段状态 In Orbit
所有者/国家 SPXS/US

Most Searched